Location: R�serve Fauniques des Laurentides
(47.3100°N, 71.1900°W)
Time: 03:39:11
(UTC-04:00)

Cosmos 1674 - Visible Passes

Search period start: 24 October 2017 00:00
Search period end: 03 November 2017 00:00
Orbit: 497 x 523 km, 82.5° (Epoch: 23 October)

Date Brightness Start Highest point End Pass type
(mag) Time Alt. Az. Time Alt. Az. Time Alt. Az.
24 Oct 2.5 05:50:24 10° S 05:54:07 82° W 05:57:53 10° N visible
25 Oct 2.7 05:33:36 10° S 05:37:19 78° E 05:41:04 10° NNE visible
26 Oct 3.1 05:16:51 10° S 05:20:30 60° E 05:24:12 10° NNE visible
27 Oct 3.6 05:01:12 18° SSE 05:03:42 46° E 05:07:19 10° NNE visible
27 Oct 4.3 06:37:29 10° WSW 06:39:36 14° WNW 06:41:43 10° NNW visible
28 Oct 4.1 04:46:36 35° ESE 04:46:55 36° E 04:50:23 10° NNE visible
28 Oct 4.1 06:21:36 16° W 06:22:41 18° WNW 06:25:17 10° NNW visible
29 Oct 4.9 04:31:19 24° ENE 04:31:19 24° ENE 04:33:24 10° NNE visible
29 Oct 4.0 06:06:17 21° WNW 06:06:17 21° WNW 06:08:43 10° NNW visible
30 Oct 5.6 04:15:42 14° NE 04:15:42 14° NE 04:16:23 10° NE visible
30 Oct 4.4 05:50:39 18° NNW 05:50:39 18° NNW 05:52:06 10° NNW visible
31 Oct 4.9 05:34:47 14° NNW 05:34:47 14° NNW 05:35:24 10° N visible
